Boulder Muni, Boulder, CO, CO

8:43 PM MDT on April 22, 2018 (GMT -0600)
Boulder Muni, Boulder, CO

Weather History for KBDU - January, 2014

Change the Weather History Date:

Tuesday, January 7, 2014

  Actual Average Record
Temperature  
Mean Temperature 40 °F -  
Max Temperature 50 °F - 54 °F (2018)
Min Temperature 30 °F - 5 °F (2017)
Degree Days  
Heating Degree Days 25    
Month to date heating degree days  
Cooling Degree Days 0    
Month to date cooling degree days  
Moisture  
Dew Point 16 °F    
Average Humidity 42    
Maximum Humidity 69    
Minimum Humidity 18    
Precipitation  
Precipitation 0.00 in - 0.00 in (2018)
Snow  
Snow 0.00 in - - ()
Snow Depth -    
Sea Level Pressure  
Sea Level Pressure 29.96 in    
Wind  
Wind Speed 10 mph (West)    
Max Wind Speed 30 mph    
Max Gust Speed 40 mph    
Visibility 10 miles    
Events Rain    
T = Trace of Precipitation, MM = Missing Value Source: NWS Daily Summary

Daily Weather History Graph

Daily Weather History Graph

Search for Another Location

Airport or City:

Astronomy

Jan. 07, 2014 Rise Set
Actual Time 7:22 AM MST 4:51 PM MST
Civil Twilight 6:52 AM MST 5:22 PM MST
Nautical Twilight 6:19 AM MST 5:55 PM MST
Astronomical Twilight 5:46 AM MST 6:28 PM MST
Moon 11:13 AM MST (1/7) No Moon Set
Length of Visible Light 10h 29m
Length of Day
9h 28m
Waxing Crescent, 46% of the Moon is Illuminated
Jan 7
Waxing Crescent
Jan 7
First Quarter
Jan 15
Full
Jan 23
Last Quarter
Jan 30
New

Hourly Weather History & Observations

Time (MST) Temp. Windchill Dew Point Humidity Pressure Visibility Wind Dir Wind Speed Gust Speed Precip Events Conditions
12:15 AM 41.0 °F 34.3 °F 10.4 °F 29% 30.02 in 10.0 mi South 11.5 mph 19.6 mph N/A   Clear
12:35 AM 41.0 °F 37.1 °F 10.4 °F 29% 30.01 in 10.0 mi South 5.8 mph 21.9 mph N/A   Clear
12:55 AM 42.8 °F 37.5 °F 10.4 °F 27% 30.00 in 10.0 mi South 9.2 mph 18.4 mph N/A   Clear
1:15 AM 41.0 °F 35.2 °F 10.4 °F 29% 29.99 in 10.0 mi South 9.2 mph 17.3 mph N/A   Clear
1:35 AM 39.2 °F 33.0 °F 10.4 °F 31% 29.99 in 10.0 mi North 9.2 mph - N/A   Clear
1:55 AM 37.4 °F 30.8 °F 12.2 °F 36% 29.99 in 10.0 mi ENE 9.2 mph - N/A   Clear
2:15 AM 41.0 °F 35.2 °F 12.2 °F 31% 29.99 in 10.0 mi NE 9.2 mph - N/A   Clear
2:35 AM 37.4 °F 33.8 °F 12.2 °F 36% 30.00 in 10.0 mi NE 4.6 mph - N/A   Clear
2:55 AM 41.0 °F 37.1 °F 10.4 °F 29% 30.00 in 10.0 mi SSE 5.8 mph - N/A   Clear
3:15 AM 42.8 °F 39.3 °F 10.4 °F 27% 30.00 in 10.0 mi SSE 5.8 mph - N/A   Clear
3:35 AM 42.8 °F 39.3 °F 8.6 °F 25% 30.00 in 10.0 mi SSE 5.8 mph - N/A   Clear
3:55 AM 42.8 °F 37.5 °F 8.6 °F 25% 30.00 in 10.0 mi West 9.2 mph 20.7 mph N/A   Clear
4:15 AM 42.8 °F 34.5 °F 10.4 °F 27% 29.99 in 10.0 mi WSW 18.4 mph 25.3 mph N/A   Clear
4:35 AM 42.8 °F 33.8 °F 12.2 °F 29% 29.99 in 7.0 mi WSW 21.9 mph 33.4 mph N/A   Clear
4:55 AM 41.0 °F 30.2 °F 10.4 °F 29% 29.99 in 5.0 mi WSW 27.6 mph 36.8 mph N/A   Clear
5:15 AM 42.8 °F 33.1 °F 10.4 °F 27% 29.98 in 7.0 mi WSW 25.3 mph 35.7 mph N/A   Light Drizzle
5:35 AM 42.8 °F 32.3 °F 10.4 °F 27% 29.97 in 5.0 mi WSW 29.9 mph 40.3 mph N/A Rain Light Rain
5:55 AM 44.6 °F 34.9 °F 8.6 °F 23% 29.97 in 7.0 mi West 28.8 mph 39.1 mph N/A   Light Drizzle
6:15 AM 44.6 °F 35.7 °F 8.6 °F 23% 29.97 in 10.0 mi West 24.2 mph 33.4 mph N/A   Light Drizzle
6:35 AM 44.6 °F 35.5 °F 8.6 °F 23% 29.97 in 10.0 mi West 25.3 mph 32.2 mph N/A   Clear
6:55 AM 44.6 °F 35.7 °F 6.8 °F 21% 29.97 in 10.0 mi West 24.2 mph 34.5 mph N/A   Clear
7:15 AM 46.4 °F 39.0 °F 5.0 °F 18% 29.97 in 10.0 mi West 19.6 mph 24.2 mph N/A   Clear
7:35 AM 46.4 °F 38.5 °F 6.8 °F 20% 29.97 in 10.0 mi WSW 21.9 mph 27.6 mph N/A   Clear
7:55 AM 46.4 °F 39.5 °F 8.6 °F 22% 29.96 in 10.0 mi WSW 17.3 mph 26.5 mph N/A   Clear
8:15 AM 46.4 °F 40.1 °F 10.4 °F 23% 29.96 in 10.0 mi WSW 15.0 mph 26.5 mph N/A   Clear
8:35 AM 48.2 °F - 12.2 °F 24% 29.98 in 10.0 mi WSW 5.8 mph 25.3 mph N/A   Scattered Clouds
8:55 AM 48.2 °F - 10.4 °F 22% 29.99 in 10.0 mi WNW 12.7 mph - N/A   Clear
9:15 AM 48.2 °F - 10.4 °F 22% 29.99 in 10.0 mi West 12.7 mph 17.3 mph N/A   Clear
9:35 AM 50.0 °F - 10.4 °F 20% 29.99 in 10.0 mi WSW 9.2 mph 26.5 mph N/A   Clear
9:55 AM 48.2 °F - 12.2 °F 24% 30.00 in 10.0 mi WSW 3.5 mph - N/A   Clear
10:15 AM 44.6 °F - 17.6 °F 34% 30.00 in 10.0 mi Calm Calm - N/A   Clear
10:35 AM 42.8 °F - 17.6 °F 36% 30.00 in 10.0 mi Calm Calm - N/A   Clear
10:55 AM 41.0 °F 38.0 °F 19.4 °F 42% 29.99 in 10.0 mi ENE 4.6 mph - N/A   Clear
11:15 AM 42.8 °F 38.6 °F 17.6 °F 36% 29.97 in 10.0 mi North 6.9 mph - N/A   Clear
11:35 AM 39.2 °F 37.0 °F 21.2 °F 49% 29.97 in 10.0 mi East 3.5 mph - N/A   Clear
11:55 AM 33.8 °F 28.6 °F 21.2 °F 60% 29.95 in 10.0 mi ESE 5.8 mph - N/A   Clear
12:14 PM 37.4 °F 33.8 °F 17.6 °F 45% 29.94 in 10.0 mi South 4.6 mph - N/A   Clear
12:34 PM 33.8 °F 27.7 °F 19.4 °F 56% 29.93 in 10.0 mi NNW 6.9 mph - N/A   Clear
12:54 PM 33.8 °F 29.6 °F 19.4 °F 56% 29.92 in 10.0 mi North 4.6 mph - N/A   Clear
1:13 PM 33.8 °F - 21.2 °F 60% 29.92 in 10.0 mi Calm Calm - N/A   Clear
1:33 PM 32.0 °F - 21.2 °F 64% 29.91 in 10.0 mi Calm Calm - N/A   Clear
1:53 PM 32.0 °F 26.4 °F 19.4 °F 60% 29.92 in 10.0 mi North 5.8 mph - N/A   Clear
2:13 PM 35.6 °F 32.8 °F 19.4 °F 52% 29.92 in 10.0 mi West 3.5 mph - N/A   Clear
2:33 PM 35.6 °F 32.8 °F 19.4 °F 52% 29.92 in 10.0 mi West 3.5 mph - N/A   Clear
2:53 PM 37.4 °F 32.1 °F 19.4 °F 48% 29.92 in 10.0 mi North 6.9 mph - N/A   Clear
3:13 PM 33.8 °F 28.6 °F 17.6 °F 52% 29.92 in 10.0 mi North 5.8 mph - N/A   Scattered Clouds
3:33 PM 33.8 °F 28.6 °F 19.4 °F 56% 29.93 in 10.0 mi North 5.8 mph - N/A   Mostly Cloudy
3:53 PM 33.8 °F 28.6 °F 17.6 °F 52% 29.93 in 10.0 mi NNW 5.8 mph - N/A   Overcast
4:13 PM 35.6 °F - 19.4 °F 52% 29.92 in 10.0 mi Calm Calm - N/A   Overcast
4:33 PM 35.6 °F 29.2 °F 21.2 °F 56% 29.92 in 10.0 mi SW 8.1 mph - N/A   Mostly Cloudy
4:53 PM 41.0 °F 33.1 °F 17.6 °F 39% 29.92 in 10.0 mi WSW 15.0 mph 20.7 mph N/A   Clear
5:13 PM 44.6 °F 36.9 °F 17.6 °F 34% 29.92 in 10.0 mi West 18.4 mph 24.2 mph N/A   Clear
5:32 PM 44.6 °F 37.4 °F 19.4 °F 37% 29.92 in 10.0 mi West 16.1 mph - N/A   Clear
5:53 PM 42.8 °F 35.4 °F 21.2 °F 42% 29.91 in 10.0 mi WSW 15.0 mph 20.7 mph N/A   Clear
6:11 PM 42.8 °F 38.0 °F 21.2 °F 42% 29.91 in 10.0 mi WSW 8.1 mph - N/A   Clear
6:32 PM 42.8 °F 37.5 °F 23.0 °F 46% 29.91 in 10.0 mi West 9.2 mph - N/A   Scattered Clouds
6:53 PM 42.8 °F 39.3 °F 21.2 °F 42% 29.91 in 10.0 mi WNW 5.8 mph - N/A   Mostly Cloudy
7:12 PM 42.8 °F 40.1 °F 23.0 °F 46% 29.91 in 10.0 mi West 4.6 mph - N/A   Overcast
7:33 PM 42.8 °F 37.0 °F 23.0 °F 46% 29.92 in 10.0 mi West 10.4 mph - N/A   Overcast
7:52 PM 35.6 °F 29.2 °F 21.2 °F 56% 29.93 in 10.0 mi NNW 8.1 mph - N/A   Overcast
8:11 PM 32.0 °F 23.6 °F 19.4 °F 60% 29.94 in 10.0 mi North 10.4 mph - N/A   Overcast
8:32 PM 30.2 °F 23.4 °F 19.4 °F 64% 29.97 in 10.0 mi ENE 6.9 mph - N/A   Mostly Cloudy
8:53 PM 30.2 °F 26.7 °F 19.4 °F 64% 29.97 in 10.0 mi NNE 3.5 mph - N/A   Overcast
9:10 PM 32.0 °F - 19.4 °F 60% 29.97 in 10.0 mi Calm Calm - N/A   Overcast
9:32 PM 32.0 °F 28.7 °F 19.4 °F 60% 29.97 in 10.0 mi SW 3.5 mph - N/A   Overcast
9:52 PM 32.0 °F 28.7 °F 19.4 °F 60% 29.97 in 10.0 mi South 3.5 mph - N/A   Overcast
10:13 PM 32.0 °F - 21.2 °F 64% 29.97 in 10.0 mi Calm Calm - N/A   Overcast
10:32 PM 32.0 °F - 21.2 °F 64% 29.97 in 10.0 mi Calm Calm - N/A   Mostly Cloudy
10:52 PM 30.2 °F 24.3 °F 21.2 °F 69% 29.99 in 10.0 mi NE 5.8 mph - N/A   Mostly Cloudy
11:11 PM 30.2 °F 23.4 °F 19.4 °F 64% 29.99 in 10.0 mi NNE 6.9 mph - N/A   Mostly Cloudy
11:31 PM 30.2 °F - 19.4 °F 64% 30.00 in 10.0 mi Calm Calm - N/A   Scattered Clouds
11:51 PM 30.2 °F 25.4 °F 21.2 °F 69% 30.00 in 10.0 mi West 4.6 mph - N/A   Clear